weather.gov     
National Weather Service

Regional Weather Roundup
NWS Homepage
This page is being discontinued on March 12, 2014.
The same data is available at this site. Please update your bookmarks.
Thank you, and we apologize for the inconvenience.
Please send an email to SR-SRH.Webmaster@noaa.gov with any concerns.


Current Version
Previous Version:    01  02  03  04  05  06  07  08  09  10  11  12  13  14  15  16  17  18  19  20  21  22  23  24  25  26  27  28  29  30  
   31  32  33  34  35  36  37  38  39  40  41  42  43  44  45  46  47  48  49  50  51  52  53  
[Printable]
105
ASUS43 KLSX 301907
RWRMO

WEATHER SUMMARY FOR MISSOURI
NATIONAL WEATHER SERVICE SPRINGFIELD MO
200 PM CDT WED JUL 30 2014

NOTE: "FAIR" INDICATES FEW OR NO CLOUDS BELOW 12,000 FEET WITH NO
       SIGNIFICANT WEATHER AND/OR OBSTRUCTIONS TO VISIBILITY.
       CURRENT SKY AND/OR WEATHER CONDITIONS ARE NOT AVAILABLE FOR
       CHILLICOTHE AND FARMINGTON.

MOZ001>031-035>038-043-044-053-054-302000-
...NORTHERN AND WESTERN MISSOURI...

CITY           SKY/WX    TMP DP  RH WIND       PRES   REMARKS
KANSAS CTY INT CLOUDY    78  56  46 VRB5      30.11F
KANSAS C DTWN  PTSUNNY   80  56  43 MISG      30.09F
LEE`S SUMMIT   CLOUDY    77  56  48 CALM      30.11F
ST JOSEPH      PTSUNNY   79  57  46 CALM      30.11F
CHILLICOTHE      N/A     80  56  43 VRB5      30.11F
KIRKSVILLE     MOSUNNY   82  54  37 VRB5      30.11F

$$
MOZ066>068-077>081-088>096-101>105-302000-
...SOUTHWEST MISSOURI...

CITY           SKY/WX    TMP DP  RH WIND       PRES   REMARKS
SPRINGFIELD    CLOUDY    70  64  81 W3        30.12S
JOPLIN         LGT RAIN  67  66  97 E6        30.11S FOG

$$
MOZ032>034-039>042-045>050-055>058-069>072-302000-
...CENTRAL MISSOURI...

CITY           SKY/WX    TMP DP  RH WIND       PRES   REMARKS
COLUMBIA       PTSUNNY   80  58  46 CALM      30.09F
JEFFERSON CITY CLOUDY    79  60  52 VRB3      30.08F
ROLLA          CLOUDY    74  56  53 NE6       30.09F
SEDALIA        CLOUDY    81  60  48 E6        30.10F
WHITEMAN AFB   MOSUNNY   78  49  36 SE6       30.09F
OSAGE BEACH    CLOUDY    73  61  64 CALM      30.10F

$$
MOZ051-052-059>065-302000-
...EAST CENTRAL MISSOURI...

CITY           SKY/WX    TMP DP  RH WIND       PRES   REMARKS
ST LOUIS INTL  PTSUNNY   85  54  34 VRB6      30.08F
SPIRIT OF STL  PTSUNNY   83  54  36 N8        30.06F
ST CHARLES     MOSUNNY   80  55  42 CALM      30.07F

$$
MOZ072>076-082>087-097>100-106>115-302000-
...SOUTH CENTRAL AND SOUTHEAST MISSOURI...

CITY           SKY/WX    TMP DP  RH WIND       PRES   REMARKS
CAPE GIRARDEAU CLOUDY    76  59  55 SW6       30.10F
FARMINGTON     CLOUDY    75  59  57 S7        30.12F
POPLAR BLUFF   CLOUDY    77  58  51 S7        30.09S
WEST PLAINS    LGT RAIN  72  64  76 SW6       30.13S

$$




U.S. Dept. of Commerce
NOAA National Weather Service
1325 East West Highway
Silver Spring, MD 20910
E-mail: w-nws.webmaster@noaa.gov
Page last modified: May 16, 2007
NATIONAL WEATHER SERVICE: for Safety, for Work, for Fun - FOR LIFE